Retour au catalogue

COSMOS 1161

ActifNavigationLEO
NORAD 11696·PAYLOAD·🇷🇺 Russia

Lancé Feb 11, 1980 depuis Plesetsk Cosmodrome

Loading…

Prochains Passages (prochaines 24 heures)

TLE

FraisSource: Space-Track

Époque: Sep 14, 2026, 08:28 UTC

1 11696U 80012F   26257.35289317 -.00000026  00000-0 -76303-4 0  9997
2 11696  74.0212  45.6394 0021545  97.0802 263.2697 12.45173761117714

Suivez COSMOS 1161 en temps réel avec AllMySat

Download on the App Store